[[{"header":{"parameterUnit":"m.s-1","parameterCategory":1,"la1":30.2992,"la2":30.254,"lo1":-89.0895,"lo2":-89.0443,"dy":0.0025,"dx":0.0025,"nx":19,"ny":19,"refTime":"2026-03-22T09:00:00:Z","depth":0,"parameterNumber":2,"parameterNumberName":"U-component_of_WINDS"},"data":[0,0,0,3.6891,3.6896,3.7108,3.7109,3.7389,3.7392,0,0,0,0,0,0,0,0,0,0,0,3.6832,3.6834,3.6891,3.6896,3.7108,3.7109,3.7389,3.7392,0,0,0,0,0,0,0,0,0,0,0,3.6831,3.6834,3.6836,3.6897,3.7108,3.7109,3.7388,3.7225,0,0,0,0,0,0,0,0,0,0,3.7018,3.6967,3.6833,3.6836,3.6898,3.7108,3.7109,3.7217,3.7235,3.7296,0,3.7351,0,3.7376,3.7411,3.7412,0,0,0,3.6893,3.6952,3.7005,3.6837,3.69,3.7108,3.7012,3.7227,3.7248,3.7321,3.7355,3.7365,3.738,3.7413,3.7414,3.7773,3.7774,0,0,3.6882,3.6873,3.6991,3.7019,3.6986,3.7005,3.7018,3.724,3.7277,3.7356,3.7371,3.7385,3.7415,3.7417,3.7771,3.7773,0,0,0,3.685,3.6865,3.6913,3.7008,3.7045,3.7011,3.7027,3.7267,3.7283,3.7374,3.7388,3.7417,3.742,3.7769,3.7772,3.7851,0,0,0,3.6843,3.6846,3.6908,3.6905,3.7041,3.7159,3.7049,3.7268,3.7293,3.7387,3.7417,3.7423,3.7767,3.777,3.7845,3.789,0,0,0,3.6817,3.6843,3.6876,3.6904,3.6995,3.7155,3.7184,3.7274,3.7302,3.7412,3.7424,3.7766,3.777,3.7839,3.7881,3.7981,0,0,0,3.6788,3.6945,3.6877,3.7057,3.6993,3.7203,3.7183,3.734,3.7444,3.7418,3.7767,3.7771,3.7837,3.7875,3.7975,3.8063,3.8099,0,0,3.6981,3.6967,3.7074,3.702,3.7239,3.7171,3.7403,3.7507,3.7526,3.769,3.7699,3.7847,3.788,3.798,3.8307,3.8335,0,0,0,3.7133,3.7209,3.7269,3.7368,3.745,3.7525,3.7594,3.7633,3.7772,3.7608,3.7911,3.7931,3.799,3.8033,3.8057,3.8107,3.7791,3.7791,3.779,3.7393,3.7408,3.7586,3.7627,3.7722,3.7792,3.7871,3.7935,3.7923,3.7995,3.8043,3.8239,3.8289,3.8307,3.8359,3.8092,3.8092,3.8092,3.8092,3.7676,3.7787,3.7767,3.7931,3.7947,3.8086,3.8159,3.8146,3.8278,3.8204,3.8257,3.8173,3.8338,3.8384,3.8099,3.8098,3.8097,3.8096,3.8096,3.7848,3.7903,3.7947,3.809,3.8199,3.8235,3.8362,3.8372,3.8383,3.8435,3.8486,3.8485,3.8484,3.8459,3.846,3.846,3.8461,3.8461,3.8462,3.8007,3.8054,3.8159,3.826,3.8324,3.841,3.8482,3.8546,3.8619,3.8616,3.8616,3.8597,3.8351,3.8288,3.8472,3.847,3.8469,3.8468,3.8467,3.8286,3.8225,3.8387,3.8452,3.8571,3.8678,3.8689,3.8818,3.8872,3.8934,3.8904,3.8721,3.8709,3.8689,3.8638,3.8901,3.8901,3.8901,3.8901,3.8429,3.8424,3.8592,3.8694,3.8795,3.8822,3.9006,3.9063,3.9113,3.9148,3.9112,3.9044,3.9024,3.9023,3.8997,3.8948,3.9285,3.9285,3.9286,3.8601,3.8606,3.876,3.8807,3.8901,3.8982,3.9155,3.9273,3.9317,3.9302,3.9175,3.9159,3.905,3.9014,3.8994,3.8952,3.8864,0,0]},{"header":{"parameterUnit":"m.s-1","parameterCategory":1,"la1":30.2992,"la2":30.254,"lo1":-89.0895,"lo2":-89.0443,"dy":0.0025,"dx":0.0025,"nx":19,"ny":19,"refTime":"2026-03-22T09:00:00:Z","depth":0,"parameterNumber":3,"parameterNumberName":"V-component_of_WINDS"},"data":[0,0,0,3.1606,3.1611,3.1851,3.1852,3.2149,3.2152,0,0,0,0,0,0,0,0,0,0,0,3.153,3.1531,3.1605,3.1611,3.1851,3.1852,3.2149,3.2152,0,0,0,0,0,0,0,0,0,0,0,3.1529,3.1531,3.1533,3.1612,3.1851,3.1852,3.2148,3.197,0,0,0,0,0,0,0,0,0,0,3.1739,3.1664,3.153,3.1533,3.1613,3.185,3.1852,3.1962,3.1981,3.2036,0,3.2085,0,3.2123,3.2171,3.2172,0,0,0,3.1615,3.1648,3.1717,3.1534,3.1615,3.185,3.1744,3.1973,3.1995,3.2062,3.2089,3.2101,3.2128,3.2173,3.2174,3.2482,3.2483,0,0,3.1601,3.157,3.1701,3.1731,3.1694,3.1736,3.1751,3.1986,3.2013,3.209,3.2108,3.2133,3.2175,3.2177,3.2481,3.2483,0,0,0,3.1561,3.1561,3.1624,3.1718,3.1762,3.1743,3.176,3.2003,3.2026,3.2111,3.2136,3.2176,3.218,3.248,3.2482,3.2515,0,0,0,3.1553,3.1537,3.1618,3.1601,3.1758,3.1886,3.1771,3.201,3.2038,3.2135,3.2177,3.2183,3.2478,3.2481,3.2511,3.2536,0,0,0,3.1516,3.1533,3.1566,3.1599,3.1701,3.1883,3.192,3.2017,3.2053,3.2172,3.2184,3.2477,3.248,3.2508,3.253,3.2608,0,0,0,3.1466,3.1592,3.1566,3.1715,3.1699,3.1901,3.1919,3.2071,3.2177,3.2178,3.2479,3.2481,3.2506,3.2527,3.2604,3.2668,3.2692,0,0,3.1607,3.1607,3.1698,3.1682,3.1881,3.1867,3.2071,3.2198,3.2237,3.2398,3.2406,3.2512,3.253,3.2607,3.2834,3.2852,0,0,0,3.1732,3.1796,3.1856,3.1956,3.2056,3.2143,3.2242,3.2288,3.2426,3.2314,3.2562,3.2573,3.262,3.2652,3.2668,3.271,3.2495,3.2494,3.2494,3.1886,3.193,3.2083,3.2156,3.2252,3.2352,3.2434,3.2514,3.253,3.2588,3.2636,3.2768,3.2805,3.2817,3.286,3.2673,3.2673,3.2673,3.2673,3.2096,3.2195,3.2213,3.2368,3.2413,3.2543,3.2643,3.265,3.2777,3.2736,3.2779,3.273,3.2836,3.2876,3.2676,3.2676,3.2675,3.2675,3.2675,3.2203,3.2258,3.2313,3.2461,3.257,3.2639,3.276,3.2797,3.2832,3.2875,3.293,3.2929,3.2934,3.2898,3.2899,3.2899,3.29,3.29,3.29,3.2292,3.2353,3.2451,3.2567,3.2635,3.273,3.2831,3.2899,3.2984,3.3001,3.3002,3.3012,3.2838,3.2793,3.2908,3.2906,3.2905,3.2905,3.2904,3.249,3.2451,3.2602,3.2671,3.281,3.2915,3.296,3.3096,3.3157,3.3216,3.3217,3.3082,3.3085,3.3072,3.3036,3.3206,3.3206,3.3206,3.3207,3.258,3.2585,3.2748,3.2856,3.2965,3.3021,3.3189,3.3268,3.3344,3.3384,3.3365,3.3319,3.3305,3.3317,3.3299,3.3266,3.3491,3.3491,3.3491,3.2705,3.2722,3.2859,3.2933,3.3044,3.3138,3.3297,3.3419,3.3496,3.3504,3.3417,3.3405,3.3332,3.3306,3.3312,3.3284,3.3224,0,0]}]]